Volver al catálogo

DELTA 1 DEB

ActivoLEO
NORAD 29184·DEBRIS·🇺🇸 United States

Lanzado Jan 11, 1968 desde Vandenberg Space Force Base

Loading…

Próximos Pases (próximas 24 horas)

TLE

EnvejeciendoSource: Space-Track

Época: Sep 11, 2026, 02:14 UTC

1 29184U 68002H   26254.09336370  .00000274  00000-0  77930-3 0  9992
2 29184 105.8318 350.0571 0258074  77.1949 285.7843 13.17052125569864

Sigue DELTA 1 DEB en tiempo real con AllMySat

Download on the App Store